Wolke Sonne

Wetter Ammerndorf

Gehe zu: Roßtal

Tageswerte vom Dienstag, 29.03.2022

Optionen

Tag:
Erweitert:

Alle Werte vom Dienstag, 29.03.2022

Einen Moment bitte, die Daten werden aufbereitet...

UhrzeitTemperaturBoden 10cmBoden 20cmFeuchteLuftdruckNiederschlagEvapotranspirationWindWindböenWindrichtungSolarstrahlungUV-IndexSonne?Uhrzeit
Diagramm IconDiagramm IconDiagramm IconDiagramm IconDiagramm IconDiagramm IconDiagramm IconDiagramm IconDiagramm IconDiagramm IconDiagramm IconDiagramm IconDiagramm Icon
00:004,3 °C 7,8 °C 7,2 °C 76 % 1016,5 hPa 0,0 mm - 0,0 km/h 0,0 km/h WSW 0,0 W/qm 0,0 nein 00:00
00:054,3 °C 7,2 °C 7,2 °C 75 % 1016,5 hPa 0,0 mm 0,0 mm 0,0 km/h 0,0 km/h WSW 0,0 W/qm 0,0 nein 00:05
00:104,1 °C 7,2 °C 7,2 °C 76 % 1016,4 hPa 0,0 mm 0,0 mm 0,0 km/h 0,0 km/h WSW 0,0 W/qm 0,0 nein 00:10
00:154,0 °C 7,2 °C 7,2 °C 77 % 1016,4 hPa 0,0 mm - 0,0 km/h 0,0 km/h WSW 0,0 W/qm 0,0 nein 00:15
00:204,0 °C 7,2 °C 7,2 °C 77 % 1016,4 hPa 0,0 mm - 0,0 km/h 0,0 km/h WSW 0,0 W/qm 0,0 nein 00:20
00:254,0 °C 7,2 °C 7,2 °C 77 % 1016,3 hPa 0,0 mm - 0,0 km/h 0,0 km/h WSW 0,0 W/qm 0,0 nein 00:25
00:303,9 °C 7,2 °C 7,2 °C 77 % 1016,3 hPa 0,0 mm - 0,0 km/h 0,0 km/h WSW 0,0 W/qm 0,0 nein 00:30
00:353,8 °C 7,2 °C 7,2 °C 78 % 1016,2 hPa 0,0 mm - 0,0 km/h 0,0 km/h WSW 0,0 W/qm 0,0 nein 00:35
00:403,7 °C 7,2 °C 7,2 °C 78 % 1016,2 hPa 0,0 mm - 0,0 km/h 0,0 km/h WSW 0,0 W/qm 0,0 nein 00:40
00:453,7 °C 7,2 °C 7,2 °C 79 % 1016,2 hPa 0,0 mm - 0,0 km/h 0,0 km/h WSW 0,0 W/qm 0,0 nein 00:45
00:503,6 °C 7,2 °C 7,2 °C 79 % 1016,1 hPa 0,0 mm - 0,0 km/h 0,0 km/h WSW 0,0 W/qm 0,0 nein 00:50
00:553,5 °C 7,2 °C 7,2 °C 79 % 1016,2 hPa 0,0 mm - 0,0 km/h 0,0 km/h WSW 0,0 W/qm 0,0 nein 00:55
01:003,5 °C 7,2 °C 7,2 °C 79 % 1016,1 hPa 0,0 mm - 0,0 km/h 0,0 km/h WSW 0,0 W/qm 0,0 nein 01:00
01:053,6 °C 7,2 °C 7,2 °C 79 % 1015,9 hPa 0,0 mm 0,0 mm 0,0 km/h 0,0 km/h WSW 0,0 W/qm 0,0 nein 01:05
01:103,4 °C 7,2 °C 7,2 °C 79 % 1016,0 hPa 0,0 mm 0,0 mm 0,0 km/h 0,0 km/h WSW 0,0 W/qm 0,0 nein 01:10
01:153,3 °C 7,2 °C 7,2 °C 80 % 1015,9 hPa 0,0 mm - 0,0 km/h 0,0 km/h WSW 0,0 W/qm 0,0 nein 01:15
01:203,3 °C 7,2 °C 7,2 °C 80 % 1015,9 hPa 0,0 mm - 0,0 km/h 0,0 km/h WSW 0,0 W/qm 0,0 nein 01:20
01:253,4 °C 7,2 °C 7,2 °C 80 % 1015,8 hPa 0,0 mm - 0,0 km/h 0,0 km/h WSW 0,0 W/qm 0,0 nein 01:25
01:303,3 °C 7,2 °C 7,2 °C 80 % 1015,8 hPa 0,0 mm - 0,0 km/h 0,0 km/h WSW 0,0 W/qm 0,0 nein 01:30
01:353,3 °C 7,2 °C 7,2 °C 81 % 1015,8 hPa 0,0 mm - 0,0 km/h 0,0 km/h WSW 0,0 W/qm 0,0 nein 01:35
01:403,4 °C 7,2 °C 7,2 °C 80 % 1015,8 hPa 0,0 mm - 0,0 km/h 0,0 km/h WSW 0,0 W/qm 0,0 nein 01:40
01:453,3 °C 7,2 °C 7,2 °C 80 % 1015,7 hPa 0,0 mm - 0,0 km/h 0,0 km/h WSW 0,0 W/qm 0,0 nein 01:45
01:503,4 °C 7,2 °C 7,2 °C 80 % 1015,7 hPa 0,0 mm - 0,0 km/h 0,0 km/h WSW 0,0 W/qm 0,0 nein 01:50
01:553,3 °C 7,2 °C 7,2 °C 80 % 1015,6 hPa 0,0 mm - 0,0 km/h 0,0 km/h WSW 0,0 W/qm 0,0 nein 01:55
UhrzeitTemperaturBoden 10cmBoden 20cmFeuchteLuftdruckNiederschlagEvapotranspirationWindWindböenWindrichtungSolarstrahlungUV-IndexSonne?Uhrzeit
02:003,3 °C 7,2 °C 7,2 °C 80 % 1015,6 hPa 0,0 mm - 0,0 km/h 0,0 km/h WSW 0,0 W/qm 0,0 nein 02:00
02:053,3 °C 7,2 °C 7,2 °C 80 % 1015,5 hPa 0,0 mm 0,0 mm 0,0 km/h 0,0 km/h WSW 0,0 W/qm 0,0 nein 02:05
02:103,4 °C 7,2 °C 7,2 °C 80 % 1015,3 hPa 0,0 mm 0,0 mm 0,0 km/h 0,0 km/h WSW 0,0 W/qm 0,0 nein 02:10
02:153,5 °C 7,2 °C 7,2 °C 80 % 1015,2 hPa 0,0 mm - 0,0 km/h 0,0 km/h WSW 0,0 W/qm 0,0 nein 02:15
02:203,6 °C 6,7 °C 7,2 °C 80 % 1015,1 hPa 0,0 mm - 0,0 km/h 1,4 km/h WSW 0,0 W/qm 0,0 nein 02:20
02:253,6 °C 6,7 °C 7,2 °C 80 % 1015,1 hPa 0,0 mm - 0,0 km/h 3,2 km/h WSW 0,0 W/qm 0,0 nein 02:25
02:303,6 °C 6,7 °C 7,2 °C 80 % 1015,1 hPa 0,0 mm - 0,0 km/h 3,2 km/h WSW 0,0 W/qm 0,0 nein 02:30
02:353,7 °C 6,7 °C 7,2 °C 81 % 1015,1 hPa 0,0 mm - 0,0 km/h 0,0 km/h WSW 0,0 W/qm 0,0 nein 02:35
02:403,7 °C 6,7 °C 7,2 °C 80 % 1015,0 hPa 0,0 mm - 0,0 km/h 0,0 km/h WSW 0,0 W/qm 0,0 nein 02:40
02:453,6 °C 6,7 °C 7,2 °C 80 % 1014,9 hPa 0,0 mm - 0,0 km/h 0,0 km/h WSW 0,0 W/qm 0,0 nein 02:45
02:503,5 °C 6,7 °C 7,2 °C 81 % 1014,9 hPa 0,0 mm - 0,0 km/h 0,0 km/h WSW 0,0 W/qm 0,0 nein 02:50
02:553,4 °C 6,7 °C 7,2 °C 81 % 1014,9 hPa 0,0 mm - 0,0 km/h 0,0 km/h WSW 0,0 W/qm 0,0 nein 02:55
03:003,4 °C 6,7 °C 7,2 °C 81 % 1014,8 hPa 0,0 mm - 0,0 km/h 0,0 km/h WSW 0,0 W/qm 0,0 nein 03:00
03:053,3 °C 6,7 °C 7,2 °C 81 % 1014,7 hPa 0,0 mm 0,0 mm 0,0 km/h 0,0 km/h WSW 0,0 W/qm 0,0 nein 03:05
03:103,2 °C 6,7 °C 7,2 °C 82 % 1014,7 hPa 0,0 mm 0,0 mm 0,0 km/h 0,0 km/h WSW 0,0 W/qm 0,0 nein 03:10
03:153,1 °C 6,7 °C 7,2 °C 82 % 1014,7 hPa 0,0 mm - 0,0 km/h 0,0 km/h WSW 0,0 W/qm 0,0 nein 03:15
03:203,0 °C 6,7 °C 7,2 °C 82 % 1014,5 hPa 0,0 mm - 0,0 km/h 0,0 km/h WSW 0,0 W/qm 0,0 nein 03:20
03:253,1 °C 6,7 °C 7,2 °C 81 % 1014,3 hPa 0,0 mm - 0,0 km/h 0,0 km/h WSW 0,0 W/qm 0,0 nein 03:25
03:303,1 °C 6,7 °C 7,2 °C 81 % 1014,5 hPa 0,0 mm - 0,0 km/h 0,0 km/h WSW 0,0 W/qm 0,0 nein 03:30
03:352,9 °C 6,7 °C 7,2 °C 82 % 1014,4 hPa 0,0 mm - 0,0 km/h 0,0 km/h WSW 0,0 W/qm 0,0 nein 03:35
03:402,9 °C 6,7 °C 7,2 °C 82 % 1014,2 hPa 0,0 mm - 0,0 km/h 0,0 km/h WSW 0,0 W/qm 0,0 nein 03:40
03:452,9 °C 6,7 °C 7,2 °C 82 % 1014,2 hPa 0,0 mm - 0,0 km/h 0,0 km/h WSW 0,0 W/qm 0,0 nein 03:45
03:502,8 °C 6,7 °C 7,2 °C 82 % 1014,1 hPa 0,0 mm - 0,0 km/h 0,0 km/h WSW 0,0 W/qm 0,0 nein 03:50
03:552,8 °C 6,7 °C 7,2 °C 83 % 1014,1 hPa 0,0 mm - 0,0 km/h 0,0 km/h WSW 0,0 W/qm 0,0 nein 03:55
UhrzeitTemperaturBoden 10cmBoden 20cmFeuchteLuftdruckNiederschlagEvapotranspirationWindWindböenWindrichtungSolarstrahlungUV-IndexSonne?Uhrzeit
04:002,8 °C 6,7 °C 7,2 °C 83 % 1014,0 hPa 0,0 mm - 0,0 km/h 0,0 km/h WSW 0,0 W/qm 0,0 nein 04:00
04:052,8 °C 6,7 °C 7,2 °C 83 % 1014,0 hPa 0,0 mm 0,0 mm 0,0 km/h 0,0 km/h WSW 0,0 W/qm 0,0 nein 04:05
04:102,9 °C 6,7 °C 7,2 °C 83 % 1014,0 hPa 0,0 mm 0,0 mm 0,0 km/h 0,0 km/h WSW 0,0 W/qm 0,0 nein 04:10
04:152,9 °C 6,7 °C 7,2 °C 83 % 1013,9 hPa 0,0 mm - 0,0 km/h 0,0 km/h WSW 0,0 W/qm 0,0 nein 04:15
04:202,9 °C 6,7 °C 7,2 °C 83 % 1013,8 hPa 0,0 mm - 0,0 km/h 0,0 km/h WSW 0,0 W/qm 0,0 nein 04:20
04:252,9 °C 6,7 °C 7,2 °C 83 % 1013,6 hPa 0,0 mm - 0,0 km/h 0,0 km/h WSW 0,0 W/qm 0,0 nein 04:25
04:302,8 °C 6,7 °C 7,2 °C 83 % 1013,6 hPa 0,0 mm - 0,0 km/h 0,0 km/h WSW 0,0 W/qm 0,0 nein 04:30
04:352,8 °C 6,7 °C 7,2 °C 84 % 1013,6 hPa 0,0 mm - 0,0 km/h 0,0 km/h WSW 0,0 W/qm 0,0 nein 04:35
04:402,9 °C 6,7 °C 6,7 °C 83 % 1013,6 hPa 0,0 mm - 0,0 km/h 0,0 km/h WSW 0,0 W/qm 0,0 nein 04:40
04:452,8 °C 6,7 °C 6,7 °C 84 % 1013,6 hPa 0,0 mm - 0,0 km/h 0,0 km/h WSW 0,0 W/qm 0,0 nein 04:45
04:502,7 °C 6,7 °C 6,7 °C 84 % 1013,5 hPa 0,0 mm - 0,0 km/h 0,0 km/h WSW 0,0 W/qm 0,0 nein 04:50
04:552,7 °C 6,7 °C 6,7 °C 84 % 1013,5 hPa 0,0 mm - 0,0 km/h 0,0 km/h WSW 0,0 W/qm 0,0 nein 04:55
05:002,6 °C 6,7 °C 6,7 °C 83 % 1013,5 hPa 0,0 mm - 0,0 km/h 0,0 km/h WSW 0,0 W/qm 0,0 nein 05:00
05:052,4 °C 6,7 °C 6,7 °C 84 % 1013,5 hPa 0,0 mm 0,0 mm 0,0 km/h 0,0 km/h WSW 0,0 W/qm 0,0 nein 05:05
05:102,4 °C 6,7 °C 6,7 °C 84 % 1013,4 hPa 0,0 mm 0,0 mm 0,0 km/h 0,0 km/h WSW 0,0 W/qm 0,0 nein 05:10
05:152,3 °C 6,7 °C 6,7 °C 84 % 1013,4 hPa 0,0 mm - 0,0 km/h 0,0 km/h WSW 0,0 W/qm 0,0 nein 05:15
05:202,3 °C 6,7 °C 6,7 °C 85 % 1013,4 hPa 0,0 mm - 0,0 km/h 0,0 km/h WSW 0,0 W/qm 0,0 nein 05:20
05:252,2 °C 6,7 °C 6,7 °C 85 % 1013,3 hPa 0,0 mm - 0,0 km/h 0,0 km/h WSW 0,0 W/qm 0,0 nein 05:25
05:302,2 °C 6,7 °C 6,7 °C 85 % 1013,3 hPa 0,0 mm - 0,0 km/h 0,0 km/h WSW 0,0 W/qm 0,0 nein 05:30
05:352,1 °C 6,7 °C 6,7 °C 84 % 1013,4 hPa 0,0 mm - 0,0 km/h 0,0 km/h WSW 0,0 W/qm 0,0 nein 05:35
05:401,9 °C 6,7 °C 6,7 °C 85 % 1013,3 hPa 0,0 mm - 0,0 km/h 0,0 km/h WSW 0,0 W/qm 0,0 nein 05:40
05:451,9 °C 6,1 °C 6,7 °C 85 % 1013,3 hPa 0,0 mm - 0,0 km/h 0,0 km/h WSW 0,0 W/qm 0,0 nein 05:45
05:501,9 °C 6,1 °C 6,7 °C 85 % 1013,2 hPa 0,0 mm - 0,0 km/h 0,0 km/h WSW 0,0 W/qm 0,0 nein 05:50
05:551,9 °C 6,1 °C 6,7 °C 85 % 1013,3 hPa 0,0 mm - 0,0 km/h 0,0 km/h WSW 0,0 W/qm 0,0 nein 05:55
UhrzeitTemperaturBoden 10cmBoden 20cmFeuchteLuftdruckNiederschlagEvapotranspirationWindWindböenWindrichtungSolarstrahlungUV-IndexSonne?Uhrzeit
06:001,9 °C 6,1 °C 6,7 °C 85 % 1013,2 hPa 0,0 mm - 0,0 km/h 0,0 km/h WSW 0,0 W/qm 0,0 nein 06:00
06:051,8 °C 6,1 °C 6,7 °C 85 % 1013,2 hPa 0,0 mm 0,0 mm 0,0 km/h 0,0 km/h WSW 0,0 W/qm 0,0 nein 06:05
06:101,7 °C 6,1 °C 6,7 °C 85 % 1013,1 hPa 0,0 mm 0,0 mm 0,0 km/h 0,0 km/h WSW 0,0 W/qm 0,0 nein 06:10
06:151,7 °C 6,1 °C 6,7 °C 86 % 1013,0 hPa 0,0 mm - 0,0 km/h 0,0 km/h WSW 0,0 W/qm 0,0 nein 06:15
06:201,5 °C 6,1 °C 6,7 °C 85 % 1013,0 hPa 0,0 mm - 0,0 km/h 0,0 km/h WSW 0,0 W/qm 0,0 nein 06:20
06:251,5 °C 6,1 °C 6,7 °C 86 % 1013,1 hPa 0,0 mm - 0,0 km/h 0,0 km/h WSW 0,0 W/qm 0,0 nein 06:25
06:301,4 °C 6,1 °C 6,7 °C 86 % 1013,0 hPa 0,0 mm - 0,0 km/h 0,0 km/h WSW 0,0 W/qm 0,0 nein 06:30
06:351,4 °C 6,1 °C 6,7 °C 86 % 1013,0 hPa 0,0 mm - 0,0 km/h 0,0 km/h WSW 0,0 W/qm 0,0 nein 06:35
06:401,5 °C 6,1 °C 6,7 °C 86 % 1013,0 hPa 0,0 mm - 0,0 km/h 0,0 km/h WSW 0,0 W/qm 0,0 nein 06:40
06:451,4 °C 6,1 °C 6,7 °C 86 % 1013,0 hPa 0,0 mm - 0,0 km/h 0,0 km/h WSW 0,0 W/qm 0,0 nein 06:45
06:501,4 °C 6,1 °C 6,7 °C 86 % 1012,9 hPa 0,0 mm - 0,0 km/h 0,0 km/h WSW 0,0 W/qm 0,0 nein 06:50
06:551,3 °C 6,1 °C 6,7 °C 86 % 1013,0 hPa 0,0 mm - 0,0 km/h 0,0 km/h WSW 0,0 W/qm 0,0 nein 06:55
07:001,3 °C 6,1 °C 6,7 °C 87 % 1013,0 hPa 0,0 mm - 0,0 km/h 0,0 km/h WSW 0,0 W/qm 0,0 nein 07:00
07:051,3 °C 6,1 °C 6,7 °C 87 % 1013,0 hPa 0,0 mm 0,0 mm 0,0 km/h 0,0 km/h WSW 5,0 W/qm 0,0 nein 07:05
07:101,3 °C 6,1 °C 6,7 °C 87 % 1013,0 hPa 0,0 mm 0,0 mm 0,0 km/h 0,0 km/h WSW 7,0 W/qm 0,0 nein 07:10
07:151,2 °C 6,1 °C 6,7 °C 87 % 1013,0 hPa 0,0 mm - 0,0 km/h 0,0 km/h WSW 11,0 W/qm 0,0 nein 07:15
07:201,2 °C 6,1 °C 6,7 °C 87 % 1013,0 hPa 0,0 mm - 0,0 km/h 0,0 km/h WSW 12,0 W/qm 0,0 nein 07:20
07:251,3 °C 6,1 °C 6,7 °C 87 % 1013,0 hPa 0,0 mm - 0,0 km/h 0,0 km/h WSW 19,0 W/qm 0,0 nein 07:25
07:301,4 °C 6,1 °C 6,7 °C 87 % 1012,8 hPa 0,0 mm - 0,0 km/h 0,0 km/h WSW 25,0 W/qm 0,0 nein 07:30
07:351,5 °C 6,1 °C 6,7 °C 87 % 1012,8 hPa 0,0 mm - 0,0 km/h 1,4 km/h WSW 28,0 W/qm 0,0 nein 07:35
07:401,6 °C 6,1 °C 6,7 °C 87 % 1012,8 hPa 0,0 mm - 0,0 km/h 3,2 km/h WSW 33,0 W/qm 0,0 nein 07:40
07:451,6 °C 6,1 °C 6,7 °C 87 % 1012,8 hPa 0,0 mm - 0,0 km/h 3,2 km/h WSW 42,0 W/qm 0,0 nein 07:45
07:501,7 °C 6,1 °C 6,7 °C 87 % 1012,9 hPa 0,0 mm - 0,0 km/h 0,0 km/h WSW 49,0 W/qm 0,0 nein 07:50
07:551,7 °C 6,1 °C 6,7 °C 87 % 1012,8 hPa 0,0 mm - 0,0 km/h 0,0 km/h WSW 62,0 W/qm 0,0 nein 07:55
UhrzeitTemperaturBoden 10cmBoden 20cmFeuchteLuftdruckNiederschlagEvapotranspirationWindWindböenWindrichtungSolarstrahlungUV-IndexSonne?Uhrzeit
08:001,9 °C 6,1 °C 6,7 °C 87 % 1012,8 hPa 0,0 mm - 0,0 km/h 0,0 km/h WSW 76,0 W/qm 0,0 nein 08:00
08:052,1 °C 6,1 °C 6,7 °C 86 % 1012,6 hPa 0,0 mm 0,0 mm 0,0 km/h 0,0 km/h WSW 86,0 W/qm 0,0 nein 08:05
08:102,3 °C 6,1 °C 6,7 °C 86 % 1012,7 hPa 0,0 mm 0,0 mm 0,0 km/h 0,0 km/h WSW 93,0 W/qm 0,0 nein 08:10
08:152,5 °C 6,1 °C 6,7 °C 86 % 1012,7 hPa 0,0 mm - 0,0 km/h 0,0 km/h WSW 100,0 W/qm 0,0 nein 08:15
08:202,7 °C 6,1 °C 6,7 °C 86 % 1012,6 hPa 0,0 mm - 0,0 km/h 0,0 km/h WSW 104,0 W/qm 0,0 nein 08:20
08:252,9 °C 6,1 °C 6,7 °C 85 % 1012,7 hPa 0,0 mm - 0,0 km/h 0,0 km/h WSW 109,0 W/qm 0,0 nein 08:25
08:303,2 °C 6,1 °C 6,7 °C 85 % 1012,7 hPa 0,0 mm - 0,0 km/h 0,0 km/h WSW 120,0 W/qm 0,0 nein 08:30
08:353,5 °C 6,1 °C 6,7 °C 84 % 1012,5 hPa 0,0 mm - 0,0 km/h 0,0 km/h WSW 120,0 W/qm 0,0 nein 08:35
08:403,8 °C 6,1 °C 6,7 °C 84 % 1012,5 hPa 0,0 mm - 0,0 km/h 0,0 km/h WSW 121,0 W/qm 0,0 nein 08:40
08:454,1 °C 6,1 °C 6,7 °C 84 % 1012,4 hPa 0,0 mm - 0,0 km/h 0,0 km/h WSW 128,0 W/qm 0,0 nein 08:45
08:504,3 °C 6,1 °C 6,7 °C 83 % 1012,4 hPa 0,0 mm - 0,0 km/h 0,0 km/h WSW 132,0 W/qm 0,0 nein 08:50
08:554,5 °C 6,1 °C 6,7 °C 82 % 1012,4 hPa 0,0 mm - 0,0 km/h 0,0 km/h WSW 139,0 W/qm 0,0 nein 08:55
09:004,8 °C 6,1 °C 6,7 °C 82 % 1012,2 hPa 0,0 mm - 0,0 km/h 0,0 km/h WSW 153,0 W/qm 0,0 nein 09:00
09:055,1 °C 6,1 °C 6,7 °C 82 % 1012,3 hPa 0,0 mm 0,1 mm 0,0 km/h 0,0 km/h WSW 169,0 W/qm 0,0 nein 09:05
09:105,4 °C 6,1 °C 6,7 °C 81 % 1012,1 hPa 0,0 mm 0,1 mm 0,0 km/h 0,0 km/h WSW 230,0 W/qm 0,5 nein 09:10
09:155,8 °C 6,1 °C 6,7 °C 81 % 1012,1 hPa 0,0 mm - 0,0 km/h 0,0 km/h WSW 243,0 W/qm 0,5 nein 09:15
09:206,2 °C 6,1 °C 6,7 °C 79 % 1011,9 hPa 0,0 mm - 0,0 km/h 0,0 km/h WSW 267,0 W/qm 0,6 nein 09:20
09:256,6 °C 6,1 °C 6,7 °C 78 % 1011,7 hPa 0,0 mm - 0,0 km/h 0,0 km/h WSW 281,0 W/qm 0,6 ja 09:25
09:307,0 °C 6,1 °C 6,7 °C 75 % 1011,8 hPa 0,0 mm - 0,0 km/h 1,4 km/h WSW 316,0 W/qm 0,7 ja 09:30
09:357,6 °C 6,1 °C 6,7 °C 71 % 1011,7 hPa 0,0 mm - 0,0 km/h 1,4 km/h WSW 294,0 W/qm 0,7 ja 09:35
09:407,9 °C 6,1 °C 6,7 °C 70 % 1011,6 hPa 0,0 mm - 0,0 km/h 0,0 km/h WSW 308,0 W/qm 0,7 ja 09:40
09:458,4 °C 6,1 °C 6,7 °C 69 % 1011,6 hPa 0,0 mm - 0,0 km/h 0,0 km/h SSW 357,0 W/qm 0,8 ja 09:45
09:508,6 °C 6,1 °C 6,7 °C 67 % 1011,5 hPa 0,0 mm - 1,4 km/h 3,2 km/h SSW 392,0 W/qm 0,8 ja 09:50
09:558,9 °C 6,1 °C 6,7 °C 68 % 1011,5 hPa 0,0 mm - 1,4 km/h 4,7 km/h SSW 339,0 W/qm 0,8 ja 09:55
UhrzeitTemperaturBoden 10cmBoden 20cmFeuchteLuftdruckNiederschlagEvapotranspirationWindWindböenWindrichtungSolarstrahlungUV-IndexSonne?Uhrzeit
10:009,1 °C 6,1 °C 6,7 °C 67 % 1011,5 hPa 0,0 mm - 0,0 km/h 4,7 km/h SSW 343,0 W/qm 0,9 ja 10:00
10:059,5 °C 6,1 °C 6,7 °C 68 % 1011,5 hPa 0,0 mm 0,2 mm 1,4 km/h 4,7 km/h SSO 329,0 W/qm 0,9 ja 10:05
10:109,8 °C 6,1 °C 6,7 °C 67 % 1011,4 hPa 0,0 mm 0,2 mm 0,0 km/h 6,5 km/h SSO 336,0 W/qm 0,9 ja 10:10
10:1510,2 °C 6,1 °C 6,7 °C 65 % 1011,3 hPa 0,0 mm - 0,0 km/h 6,5 km/h SSO 401,0 W/qm 1,0 ja 10:15
10:2010,6 °C 6,1 °C 6,7 °C 63 % 1011,3 hPa 0,0 mm - 1,4 km/h 6,5 km/h SSW 392,0 W/qm 1,0 ja 10:20
10:2510,6 °C 6,1 °C 6,7 °C 63 % 1011,2 hPa 0,0 mm - 1,4 km/h 4,7 km/h SSW 415,0 W/qm 1,1 ja 10:25
10:3010,7 °C 6,1 °C 6,7 °C 63 % 1011,2 hPa 0,0 mm - 0,0 km/h 6,5 km/h ONO 464,0 W/qm 1,2 ja 10:30
10:3510,8 °C 6,1 °C 6,7 °C 64 % 1011,1 hPa 0,0 mm - 0,0 km/h 6,5 km/h O 469,0 W/qm 1,3 ja 10:35
10:4011,2 °C 6,1 °C 6,7 °C 63 % 1011,0 hPa 0,0 mm - 0,0 km/h 4,7 km/h NO 497,0 W/qm 1,4 ja 10:40
10:4511,3 °C 6,1 °C 6,7 °C 62 % 1010,9 hPa 0,0 mm - 1,4 km/h 6,5 km/h ONO 515,0 W/qm 1,4 ja 10:45
10:5011,4 °C 6,1 °C 6,7 °C 62 % 1010,9 hPa 0,0 mm - 4,7 km/h 6,5 km/h NO 520,0 W/qm 1,5 ja 10:50
10:5511,4 °C 6,1 °C 6,7 °C 62 % 1010,9 hPa 0,0 mm - 4,7 km/h 7,9 km/h NO 490,0 W/qm 1,5 ja 10:55
11:0011,7 °C 6,1 °C 6,7 °C 63 % 1010,8 hPa 0,0 mm - 4,7 km/h 7,9 km/h ONO 450,0 W/qm 1,5 ja 11:00
11:0511,9 °C 6,1 °C 6,7 °C 61 % 1010,8 hPa 0,0 mm 0,4 mm 4,7 km/h 9,7 km/h NO 536,0 W/qm 1,5 ja 11:05
11:1012,2 °C 6,1 °C 6,7 °C 64 % 1010,7 hPa 0,0 mm 0,4 mm 4,7 km/h 9,7 km/h NO 501,0 W/qm 1,5 ja 11:10
11:1512,4 °C 6,1 °C 6,7 °C 61 % 1010,5 hPa 0,0 mm - 4,7 km/h 11,2 km/h ONO 554,0 W/qm 1,7 ja 11:15
11:2012,8 °C 6,1 °C 6,7 °C 61 % 1010,4 hPa 0,0 mm - 4,7 km/h 11,2 km/h ONO 566,0 W/qm 1,7 ja 11:20
11:2512,7 °C 6,1 °C 6,7 °C 62 % 1010,5 hPa 0,0 mm - 3,2 km/h 11,2 km/h NO 584,0 W/qm 1,8 ja 11:25
11:3012,8 °C 6,1 °C 6,7 °C 60 % 1010,5 hPa 0,0 mm - 1,4 km/h 11,2 km/h NO 606,0 W/qm 1,9 ja 11:30
11:3513,1 °C 6,1 °C 6,7 °C 58 % 1010,4 hPa 0,0 mm - 1,4 km/h 11,2 km/h NNO 606,0 W/qm 1,9 ja 11:35
11:4013,4 °C 6,1 °C 6,7 °C 57 % 1010,3 hPa 0,0 mm - 1,4 km/h 7,9 km/h SW 545,0 W/qm 1,9 ja 11:40
11:4513,4 °C 6,7 °C 6,7 °C 60 % 1010,3 hPa 0,0 mm - 1,4 km/h 6,5 km/h O 643,0 W/qm 2,1 ja 11:45
11:5013,6 °C 6,7 °C 6,7 °C 58 % 1010,1 hPa 0,0 mm - 3,2 km/h 11,2 km/h NO 626,0 W/qm 2,0 ja 11:50
11:5513,6 °C 6,7 °C 6,7 °C 57 % 1010,2 hPa 0,0 mm - 3,2 km/h 11,2 km/h NO 626,0 W/qm 2,0 ja 11:55
UhrzeitTemperaturBoden 10cmBoden 20cmFeuchteLuftdruckNiederschlagEvapotranspirationWindWindböenWindrichtungSolarstrahlungUV-IndexSonne?Uhrzeit
12:0013,7 °C 6,7 °C 6,7 °C 59 % 1010,1 hPa 0,0 mm - 3,2 km/h 11,2 km/h NO 592,0 W/qm 2,0 ja 12:00
12:0514,0 °C 6,7 °C 6,7 °C 59 % 1010,2 hPa 0,0 mm 0,7 mm 4,7 km/h 9,7 km/h WNW 589,0 W/qm 2,0 ja 12:05
12:1014,0 °C 6,7 °C 6,7 °C 59 % 1010,0 hPa 0,0 mm 0,7 mm 4,7 km/h 7,9 km/h O 545,0 W/qm 1,9 ja 12:10
12:1513,9 °C 6,7 °C 6,7 °C 57 % 1010,0 hPa 0,0 mm - 4,7 km/h 11,2 km/h ONO 462,0 W/qm 1,8 ja 12:15
12:2013,9 °C 6,7 °C 6,7 °C 58 % 1009,9 hPa 0,0 mm - 4,7 km/h 13,0 km/h NO 633,0 W/qm 2,1 ja 12:20
12:2514,2 °C 6,7 °C 6,7 °C 59 % 1009,7 hPa 0,0 mm - 4,7 km/h 13,0 km/h NNO 679,0 W/qm 2,2 ja 12:25
12:3014,4 °C 6,7 °C 6,7 °C 58 % 1009,7 hPa 0,0 mm - 6,5 km/h 13,0 km/h NO 664,0 W/qm 2,2 ja 12:30
12:3514,3 °C 6,7 °C 6,7 °C 58 % 1009,6 hPa 0,0 mm - 6,5 km/h 14,4 km/h NO 698,0 W/qm 2,3 ja 12:35
12:4014,6 °C 6,7 °C 6,7 °C 57 % 1009,5 hPa 0,0 mm - 4,7 km/h 14,4 km/h ONO 703,0 W/qm 2,3 ja 12:40
12:4514,4 °C 6,7 °C 6,7 °C 57 % 1009,5 hPa 0,0 mm - 4,7 km/h 14,4 km/h NW 682,0 W/qm 2,2 ja 12:45
12:5014,6 °C 6,7 °C 6,7 °C 56 % 1009,4 hPa 0,0 mm - 7,9 km/h 14,4 km/h NO 555,0 W/qm 2,0 ja 12:50
12:5514,5 °C 6,7 °C 6,7 °C 58 % 1009,3 hPa 0,0 mm - 6,5 km/h 14,4 km/h ONO 622,0 W/qm 2,1 ja 12:55
13:0014,7 °C 6,7 °C 6,7 °C 55 % 1009,2 hPa 0,0 mm - 4,7 km/h 14,4 km/h ONO 540,0 W/qm 2,0 ja 13:00
13:0514,6 °C 6,7 °C 6,7 °C 54 % 1009,2 hPa 0,0 mm 1,0 mm 6,5 km/h 14,4 km/h ONO 561,0 W/qm 2,0 ja 13:05
13:1014,6 °C 7,2 °C 6,7 °C 55 % 1009,1 hPa 0,0 mm 1,0 mm 6,5 km/h 13,0 km/h NO 589,0 W/qm 2,1 ja 13:10
13:1514,8 °C 7,2 °C 6,7 °C 53 % 1008,9 hPa 0,0 mm - 4,7 km/h 13,0 km/h N 656,0 W/qm 2,2 ja 13:15
13:2015,3 °C 7,2 °C 6,7 °C 55 % 1008,9 hPa 0,0 mm - 3,2 km/h 13,0 km/h ONO 701,0 W/qm 2,4 ja 13:20
13:2515,3 °C 7,2 °C 6,7 °C 53 % 1008,9 hPa 0,0 mm - 3,2 km/h 13,0 km/h ONO 649,0 W/qm 2,3 ja 13:25
13:3015,3 °C 7,2 °C 6,7 °C 56 % 1008,8 hPa 0,0 mm - 4,7 km/h 13,0 km/h NO 708,0 W/qm 2,4 ja 13:30
13:3515,6 °C 7,2 °C 6,7 °C 52 % 1008,7 hPa 0,0 mm - 6,5 km/h 13,0 km/h NO 631,0 W/qm 2,2 ja 13:35
13:4015,3 °C 7,2 °C 6,7 °C 52 % 1008,7 hPa 0,0 mm - 6,5 km/h 13,0 km/h ONO 756,0 W/qm 2,4 ja 13:40
13:4515,9 °C 7,2 °C 6,7 °C 52 % 1008,5 hPa 0,0 mm - 4,7 km/h 13,0 km/h WSW 715,0 W/qm 2,4 ja 13:45
13:5016,2 °C 7,2 °C 6,7 °C 48 % 1008,5 hPa 0,0 mm - 3,2 km/h 13,0 km/h O 738,0 W/qm 2,4 ja 13:50
13:5516,3 °C 7,2 °C 6,7 °C 49 % 1008,4 hPa 0,0 mm - 4,7 km/h 13,0 km/h NO 700,0 W/qm 2,3 ja 13:55
UhrzeitTemperaturBoden 10cmBoden 20cmFeuchteLuftdruckNiederschlagEvapotranspirationWindWindböenWindrichtungSolarstrahlungUV-IndexSonne?Uhrzeit
14:0016,3 °C 7,2 °C 6,7 °C 47 % 1008,3 hPa 0,0 mm - 4,7 km/h 11,2 km/h WNW 645,0 W/qm 2,2 ja 14:00
14:0516,3 °C 7,2 °C 6,7 °C 47 % 1008,2 hPa 0,0 mm 1,4 mm 3,2 km/h 11,2 km/h SSW 496,0 W/qm 1,9 ja 14:05
14:1016,1 °C 7,8 °C 6,7 °C 50 % 1008,3 hPa 0,0 mm 1,4 mm 3,2 km/h 11,2 km/h NNO 536,0 W/qm 1,9 ja 14:10
14:1516,2 °C 7,8 °C 6,7 °C 48 % 1008,0 hPa 0,0 mm - 4,7 km/h 11,2 km/h NNW 554,0 W/qm 1,9 ja 14:15
14:2016,1 °C 7,8 °C 6,7 °C 48 % 1007,9 hPa 0,0 mm - 4,7 km/h 14,4 km/h NNO 364,0 W/qm 1,5 ja 14:20
14:2515,8 °C 7,8 °C 6,7 °C 51 % 1008,0 hPa 0,0 mm - 3,2 km/h 14,4 km/h SSO 406,0 W/qm 1,6 ja 14:25
14:3015,8 °C 7,8 °C 6,7 °C 50 % 1007,9 hPa 0,0 mm - 3,2 km/h 14,4 km/h N 496,0 W/qm 1,8 ja 14:30
14:3516,1 °C 7,8 °C 6,7 °C 51 % 1007,7 hPa 0,0 mm - 4,7 km/h 9,7 km/h NO 485,0 W/qm 1,7 ja 14:35
14:4015,6 °C 7,8 °C 6,7 °C 53 % 1007,8 hPa 0,0 mm - 4,7 km/h 9,7 km/h NO 489,0 W/qm 1,7 ja 14:40
14:4515,6 °C 7,8 °C 6,7 °C 52 % 1007,7 hPa 0,0 mm - 6,5 km/h 16,2 km/h NO 438,0 W/qm 1,5 ja 14:45
14:5015,6 °C 7,8 °C 6,7 °C 55 % 1007,7 hPa 0,0 mm - 4,7 km/h 16,2 km/h ONO 557,0 W/qm 1,7 ja 14:50
14:5516,1 °C 7,8 °C 6,7 °C 51 % 1007,5 hPa 0,0 mm - 1,4 km/h 16,2 km/h ONO 522,0 W/qm 1,7 ja 14:55
15:0016,2 °C 7,8 °C 6,7 °C 47 % 1007,5 hPa 0,0 mm - 1,4 km/h 14,4 km/h WSW 473,0 W/qm 1,6 ja 15:00
15:0516,1 °C 7,8 °C 6,7 °C 48 % 1007,4 hPa 0,0 mm 1,7 mm 3,2 km/h 9,7 km/h SO 417,0 W/qm 1,4 ja 15:05
15:1015,9 °C 7,8 °C 6,7 °C 48 % 1007,4 hPa 0,0 mm 1,7 mm 3,2 km/h 11,2 km/h NO 452,0 W/qm 1,5 ja 15:10
15:1516,0 °C 7,8 °C 6,7 °C 47 % 1007,3 hPa 0,0 mm - 1,4 km/h 11,2 km/h WSW 475,0 W/qm 1,6 ja 15:15
15:2016,2 °C 7,8 °C 6,7 °C 47 % 1007,1 hPa 0,0 mm - 1,4 km/h 13,0 km/h ONO 501,0 W/qm 1,6 ja 15:20
15:2516,2 °C 8,3 °C 7,2 °C 49 % 1007,1 hPa 0,0 mm - 3,2 km/h 13,0 km/h S 436,0 W/qm 1,4 ja 15:25
15:3016,5 °C 8,3 °C 7,2 °C 48 % 1007,1 hPa 0,0 mm - 3,2 km/h 13,0 km/h SW 452,0 W/qm 1,4 ja 15:30
15:3516,3 °C 8,3 °C 7,2 °C 47 % 1007,0 hPa 0,0 mm - 3,2 km/h 9,7 km/h O 438,0 W/qm 1,4 ja 15:35
15:4016,1 °C 8,3 °C 7,2 °C 46 % 1006,9 hPa 0,0 mm - 3,2 km/h 11,2 km/h SSW 459,0 W/qm 1,4 ja 15:40
15:4516,3 °C 8,3 °C 7,2 °C 47 % 1006,8 hPa 0,0 mm - 3,2 km/h 14,4 km/h NO 399,0 W/qm 1,3 ja 15:45
15:5015,8 °C 8,3 °C 7,2 °C 51 % 1006,8 hPa 0,0 mm - 4,7 km/h 14,4 km/h NO 364,0 W/qm 1,2 ja 15:50
15:5515,8 °C 8,3 °C 7,2 °C 46 % 1006,9 hPa 0,0 mm - 4,7 km/h 16,2 km/h SW 264,0 W/qm 1,1 nein 15:55
UhrzeitTemperaturBoden 10cmBoden 20cmFeuchteLuftdruckNiederschlagEvapotranspirationWindWindböenWindrichtungSolarstrahlungUV-IndexSonne?Uhrzeit
16:0015,7 °C 8,3 °C 7,2 °C 47 % 1006,7 hPa 0,0 mm - 3,2 km/h 16,2 km/h SSW 229,0 W/qm 1,0 nein 16:00
16:0515,6 °C 8,3 °C 7,2 °C 48 % 1006,7 hPa 0,0 mm 2,0 mm 1,4 km/h 16,2 km/h O 206,0 W/qm 0,9 nein 16:05
16:1015,3 °C 8,3 °C 7,2 °C 51 % 1006,6 hPa 0,0 mm 2,0 mm 1,4 km/h 9,7 km/h NO 183,0 W/qm 0,7 nein 16:10
16:1515,2 °C 8,3 °C 7,2 °C 51 % 1006,6 hPa 0,0 mm - 1,4 km/h 11,2 km/h O 162,0 W/qm 0,6 nein 16:15
16:2015,2 °C 8,3 °C 7,2 °C 50 % 1006,5 hPa 0,0 mm - 1,4 km/h 11,2 km/h NW 134,0 W/qm 0,5 nein 16:20
16:2515,1 °C 8,3 °C 7,2 °C 50 % 1006,4 hPa 0,0 mm - 1,4 km/h 11,2 km/h OSO 116,0 W/qm 0,0 nein 16:25
16:3014,9 °C 8,3 °C 7,2 °C 50 % 1006,4 hPa 0,0 mm - 1,4 km/h 7,9 km/h O 130,0 W/qm 0,0 nein 16:30
16:3515,0 °C 8,3 °C 7,2 °C 48 % 1006,4 hPa 0,0 mm - 1,4 km/h 7,9 km/h SSW 142,0 W/qm 0,0 nein 16:35
16:4015,0 °C 8,3 °C 7,2 °C 49 % 1006,4 hPa 0,0 mm - 1,4 km/h 7,9 km/h ONO 155,0 W/qm 0,0 nein 16:40
16:4515,0 °C 8,3 °C 7,2 °C 49 % 1006,4 hPa 0,0 mm - 1,4 km/h 7,9 km/h NO 193,0 W/qm 0,5 nein 16:45
16:5015,1 °C 8,3 °C 7,2 °C 49 % 1006,4 hPa 0,0 mm - 1,4 km/h 7,9 km/h ONO 197,0 W/qm 0,5 nein 16:50
16:5515,1 °C 8,3 °C 7,2 °C 51 % 1006,3 hPa 0,0 mm - 1,4 km/h 7,9 km/h NO 185,0 W/qm 0,5 nein 16:55
17:0014,9 °C 8,3 °C 7,2 °C 50 % 1006,2 hPa 0,0 mm - 3,2 km/h 7,9 km/h NNW 186,0 W/qm 0,5 nein 17:00
17:0514,9 °C 8,3 °C 7,2 °C 50 % 1006,2 hPa 0,0 mm 2,1 mm 3,2 km/h 9,7 km/h ONO 195,0 W/qm 0,5 nein 17:05
17:1014,8 °C 8,3 °C 7,2 °C 48 % 1006,3 hPa 0,0 mm 2,1 mm 3,2 km/h 9,7 km/h N 190,0 W/qm 0,5 nein 17:10
17:1514,8 °C 8,3 °C 7,2 °C 48 % 1006,2 hPa 0,0 mm - 3,2 km/h 9,7 km/h NO 174,0 W/qm 0,5 nein 17:15
17:2014,7 °C 8,3 °C 7,2 °C 49 % 1006,2 hPa 0,0 mm - 3,2 km/h 9,7 km/h NNO 162,0 W/qm 0,0 nein 17:20
17:2514,6 °C 8,3 °C 7,2 °C 48 % 1006,1 hPa 0,0 mm - 1,4 km/h 9,7 km/h NO 144,0 W/qm 0,0 nein 17:25
17:3014,5 °C 8,3 °C 7,2 °C 49 % 1006,1 hPa 0,0 mm - 1,4 km/h 9,7 km/h NO 123,0 W/qm 0,0 nein 17:30
17:3514,4 °C 8,3 °C 7,2 °C 49 % 1006,1 hPa 0,0 mm - 1,4 km/h 6,5 km/h NO 114,0 W/qm 0,0 nein 17:35
17:4014,4 °C 8,3 °C 7,2 °C 49 % 1006,0 hPa 0,0 mm - 0,0 km/h 6,5 km/h NNO 104,0 W/qm 0,0 nein 17:40
17:4514,4 °C 8,3 °C 7,2 °C 50 % 1006,0 hPa 0,0 mm - 1,4 km/h 6,5 km/h ONO 97,0 W/qm 0,0 nein 17:45
17:5014,3 °C 8,3 °C 7,2 °C 50 % 1005,9 hPa 0,0 mm - 1,4 km/h 4,7 km/h NO 84,0 W/qm 0,0 nein 17:50
17:5514,2 °C 8,3 °C 7,2 °C 49 % 1005,9 hPa 0,0 mm - 1,4 km/h 4,7 km/h N 67,0 W/qm 0,0 nein 17:55
UhrzeitTemperaturBoden 10cmBoden 20cmFeuchteLuftdruckNiederschlagEvapotranspirationWindWindböenWindrichtungSolarstrahlungUV-IndexSonne?Uhrzeit
18:0014,1 °C 8,3 °C 7,2 °C 50 % 1005,8 hPa 0,0 mm - 1,4 km/h 7,9 km/h N 60,0 W/qm 0,0 nein 18:00
18:0514,1 °C 8,3 °C 7,2 °C 50 % 1005,8 hPa 0,0 mm 2,1 mm 0,0 km/h 7,9 km/h NNW 67,0 W/qm 0,0 nein 18:05
18:1014,1 °C 8,3 °C 7,2 °C 50 % 1005,8 hPa 0,0 mm 2,1 mm 0,0 km/h 6,5 km/h WNW 56,0 W/qm 0,0 nein 18:10
18:1514,2 °C 8,3 °C 7,2 °C 49 % 1005,9 hPa 0,0 mm - 0,0 km/h 6,5 km/h WNW 47,0 W/qm 0,0 nein 18:15
18:2014,1 °C 8,3 °C 7,2 °C 49 % 1005,9 hPa 0,0 mm - 0,0 km/h 4,7 km/h WNW 65,0 W/qm 0,0 nein 18:20
18:2514,0 °C 8,3 °C 7,2 °C 52 % 1005,8 hPa 0,0 mm - 0,0 km/h 4,7 km/h WNW 79,0 W/qm 0,0 nein 18:25
18:3013,8 °C 8,3 °C 7,2 °C 50 % 1005,8 hPa 0,0 mm - 1,4 km/h 4,7 km/h NNW 77,0 W/qm 0,0 nein 18:30
18:3513,7 °C 8,3 °C 7,8 °C 51 % 1005,8 hPa 0,0 mm - 3,2 km/h 4,7 km/h NNO 65,0 W/qm 0,0 nein 18:35
18:4013,4 °C 8,3 °C 7,8 °C 52 % 1005,8 hPa 0,0 mm - 3,2 km/h 9,7 km/h O 49,0 W/qm 0,0 nein 18:40
18:4513,3 °C 8,3 °C 7,8 °C 52 % 1005,9 hPa 0,0 mm - 3,2 km/h 9,7 km/h NO 35,0 W/qm 0,0 nein 18:45
18:5013,2 °C 8,3 °C 7,8 °C 54 % 1005,8 hPa 0,0 mm - 3,2 km/h 11,2 km/h NO 33,0 W/qm 0,0 nein 18:50
18:5513,0 °C 8,3 °C 7,8 °C 54 % 1005,8 hPa 0,0 mm - 3,2 km/h 11,2 km/h NO 33,0 W/qm 0,0 nein 18:55
19:0012,8 °C 8,3 °C 7,8 °C 55 % 1005,8 hPa 0,0 mm - 1,4 km/h 11,2 km/h NNO 30,0 W/qm 0,0 nein 19:00
19:0512,6 °C 8,3 °C 7,8 °C 57 % 1005,8 hPa 0,0 mm 2,2 mm 1,4 km/h 7,9 km/h NO 28,0 W/qm 0,0 nein 19:05
19:1012,4 °C 8,3 °C 7,8 °C 58 % 1005,8 hPa 0,0 mm 2,2 mm 1,4 km/h 7,9 km/h NO 21,0 W/qm 0,0 nein 19:10
19:1512,3 °C 8,3 °C 7,8 °C 58 % 1005,9 hPa 0,0 mm - 0,0 km/h 6,5 km/h NO 14,0 W/qm 0,0 nein 19:15
19:2012,3 °C 8,3 °C 7,8 °C 58 % 1005,9 hPa 0,0 mm - 0,0 km/h 4,7 km/h NO 11,0 W/qm 0,0 nein 19:20
19:2512,2 °C 8,3 °C 7,8 °C 59 % 1006,0 hPa 0,0 mm - 0,0 km/h 3,2 km/h NO 7,0 W/qm 0,0 nein 19:25
19:3011,9 °C 8,3 °C 7,8 °C 62 % 1005,9 hPa 0,0 mm - 0,0 km/h 3,2 km/h NO 5,0 W/qm 0,0 nein 19:30
19:3511,8 °C 8,3 °C 7,8 °C 62 % 1005,9 hPa 0,0 mm - 0,0 km/h 1,4 km/h NO 5,0 W/qm 0,0 nein 19:35
19:4011,6 °C 8,3 °C 7,8 °C 62 % 1005,8 hPa 0,0 mm - 0,0 km/h 0,0 km/h NO 5,0 W/qm 0,0 nein 19:40
19:4511,4 °C 8,3 °C 7,8 °C 63 % 1006,0 hPa 0,0 mm - 0,0 km/h 0,0 km/h NO 0,0 W/qm 0,0 nein 19:45
19:5011,3 °C 8,3 °C 7,8 °C 63 % 1006,0 hPa 0,0 mm - 0,0 km/h 0,0 km/h NO 0,0 W/qm 0,0 nein 19:50
19:5511,0 °C 8,3 °C 7,8 °C 65 % 1006,0 hPa 0,0 mm - 0,0 km/h 0,0 km/h NO 0,0 W/qm 0,0 nein 19:55
UhrzeitTemperaturBoden 10cmBoden 20cmFeuchteLuftdruckNiederschlagEvapotranspirationWindWindböenWindrichtungSolarstrahlungUV-IndexSonne?Uhrzeit
20:0010,8 °C 8,3 °C 7,8 °C 66 % 1006,1 hPa 0,0 mm - 0,0 km/h 0,0 km/h NO 0,0 W/qm 0,0 nein 20:00
20:0510,7 °C 8,3 °C 7,8 °C 65 % 1006,1 hPa 0,0 mm 2,2 mm 0,0 km/h 0,0 km/h NNW 0,0 W/qm 0,0 nein 20:05
20:1010,7 °C 8,3 °C 7,8 °C 65 % 1006,1 hPa 0,0 mm 2,2 mm 0,0 km/h 0,0 km/h WSW 0,0 W/qm 0,0 nein 20:10
20:1510,6 °C 8,3 °C 7,8 °C 65 % 1006,2 hPa 0,0 mm - 0,0 km/h 6,5 km/h WSW 0,0 W/qm 0,0 nein 20:15
20:2010,3 °C 8,3 °C 7,8 °C 67 % 1006,2 hPa 0,0 mm - 0,0 km/h 6,5 km/h WSW 0,0 W/qm 0,0 nein 20:20
20:2510,1 °C 8,3 °C 7,8 °C 68 % 1006,3 hPa 0,0 mm - 0,0 km/h 4,7 km/h WSW 0,0 W/qm 0,0 nein 20:25
20:309,8 °C 8,3 °C 7,8 °C 68 % 1006,3 hPa 0,0 mm - 0,0 km/h 0,0 km/h WSW 0,0 W/qm 0,0 nein 20:30
20:359,7 °C 8,3 °C 7,8 °C 68 % 1006,3 hPa 0,0 mm - 0,0 km/h 0,0 km/h WSW 0,0 W/qm 0,0 nein 20:35
20:409,5 °C 8,3 °C 7,8 °C 68 % 1006,3 hPa 0,0 mm - 0,0 km/h 0,0 km/h WSW 0,0 W/qm 0,0 nein 20:40
20:459,6 °C 8,3 °C 7,8 °C 68 % 1006,3 hPa 0,0 mm - 0,0 km/h 0,0 km/h WSW 0,0 W/qm 0,0 nein 20:45
20:509,5 °C 8,3 °C 7,8 °C 68 % 1006,3 hPa 0,0 mm - 0,0 km/h 3,2 km/h WSW 0,0 W/qm 0,0 nein 20:50
20:559,3 °C 8,3 °C 7,8 °C 69 % 1006,4 hPa 0,0 mm - 0,0 km/h 3,2 km/h WSW 0,0 W/qm 0,0 nein 20:55
21:009,1 °C 8,3 °C 7,8 °C 70 % 1006,4 hPa 0,0 mm - 0,0 km/h 3,2 km/h WSW 0,0 W/qm 0,0 nein 21:00
21:058,9 °C 8,3 °C 7,8 °C 71 % 1006,4 hPa 0,0 mm 2,2 mm 0,0 km/h 0,0 km/h WSW 0,0 W/qm 0,0 nein 21:05
21:108,8 °C 8,3 °C 7,8 °C 71 % 1006,4 hPa 0,0 mm 2,2 mm 0,0 km/h 0,0 km/h WSW 0,0 W/qm 0,0 nein 21:10
21:158,7 °C 8,3 °C 7,8 °C 72 % 1006,4 hPa 0,0 mm - 0,0 km/h 0,0 km/h WSW 0,0 W/qm 0,0 nein 21:15
21:208,6 °C 8,3 °C 7,8 °C 73 % 1006,4 hPa 0,0 mm - 0,0 km/h 0,0 km/h WSW 0,0 W/qm 0,0 nein 21:20
21:258,6 °C 8,3 °C 7,8 °C 74 % 1006,5 hPa 0,0 mm - 0,0 km/h 0,0 km/h WSW 0,0 W/qm 0,0 nein 21:25
21:308,7 °C 8,3 °C 7,8 °C 73 % 1006,5 hPa 0,0 mm - 0,0 km/h 0,0 km/h WSW 0,0 W/qm 0,0 nein 21:30
21:358,8 °C 8,3 °C 7,8 °C 73 % 1006,4 hPa 0,0 mm - 0,0 km/h 0,0 km/h WSW 0,0 W/qm 0,0 nein 21:35
21:408,8 °C 8,3 °C 7,8 °C 73 % 1006,3 hPa 0,0 mm - 0,0 km/h 0,0 km/h WSW 0,0 W/qm 0,0 nein 21:40
21:458,8 °C 8,3 °C 7,8 °C 74 % 1006,3 hPa 0,0 mm - 0,0 km/h 0,0 km/h WSW 0,0 W/qm 0,0 nein 21:45
21:508,7 °C 8,3 °C 7,8 °C 75 % 1006,5 hPa 0,0 mm - 0,0 km/h 0,0 km/h WSW 0,0 W/qm 0,0 nein 21:50
21:558,6 °C 8,3 °C 7,8 °C 76 % 1006,5 hPa 0,0 mm - 0,0 km/h 0,0 km/h WSW 0,0 W/qm 0,0 nein 21:55
UhrzeitTemperaturBoden 10cmBoden 20cmFeuchteLuftdruckNiederschlagEvapotranspirationWindWindböenWindrichtungSolarstrahlungUV-IndexSonne?Uhrzeit
22:008,8 °C 8,3 °C 7,8 °C 74 % 1006,4 hPa 0,0 mm - 0,0 km/h 3,2 km/h WSW 0,0 W/qm 0,0 nein 22:00
22:059,0 °C 8,3 °C 7,8 °C 74 % 1006,4 hPa 0,0 mm 2,2 mm 0,0 km/h 3,2 km/h WSW 0,0 W/qm 0,0 nein 22:05
22:108,7 °C 8,3 °C 7,8 °C 75 % 1006,3 hPa 0,0 mm 2,2 mm 0,0 km/h 3,2 km/h WSW 0,0 W/qm 0,0 nein 22:10
22:158,6 °C 8,3 °C 7,8 °C 75 % 1006,4 hPa 0,0 mm - 0,0 km/h 0,0 km/h WSW 0,0 W/qm 0,0 nein 22:15
22:208,8 °C 8,3 °C 7,8 °C 75 % 1006,2 hPa 0,0 mm - 0,0 km/h 0,0 km/h WSW 0,0 W/qm 0,0 nein 22:20
22:258,8 °C 8,3 °C 7,8 °C 75 % 1006,1 hPa 0,0 mm - 0,0 km/h 0,0 km/h WSW 0,0 W/qm 0,0 nein 22:25
22:308,6 °C 8,3 °C 7,8 °C 76 % 1006,2 hPa 0,0 mm - 0,0 km/h 0,0 km/h WSW 0,0 W/qm 0,0 nein 22:30
22:358,6 °C 8,3 °C 7,8 °C 76 % 1006,2 hPa 0,0 mm - 0,0 km/h 0,0 km/h WSW 0,0 W/qm 0,0 nein 22:35
22:408,7 °C 8,3 °C 7,8 °C 76 % 1006,1 hPa 0,0 mm - 0,0 km/h 0,0 km/h WSW 0,0 W/qm 0,0 nein 22:40
22:458,8 °C 8,3 °C 7,8 °C 76 % 1006,1 hPa 0,0 mm - 0,0 km/h 0,0 km/h WSW 0,0 W/qm 0,0 nein 22:45
22:508,8 °C 8,3 °C 7,8 °C 75 % 1006,1 hPa 0,0 mm - 0,0 km/h 0,0 km/h WSW 0,0 W/qm 0,0 nein 22:50
22:558,8 °C 8,3 °C 7,8 °C 75 % 1006,0 hPa 0,0 mm - 0,0 km/h 0,0 km/h WSW 0,0 W/qm 0,0 nein 22:55
23:008,7 °C 8,3 °C 7,8 °C 75 % 1006,0 hPa 0,0 mm - 0,0 km/h 0,0 km/h WSW 0,0 W/qm 0,0 nein 23:00
23:058,7 °C 8,3 °C 7,8 °C 76 % 1006,0 hPa 0,0 mm 2,2 mm 0,0 km/h 0,0 km/h WSW 0,0 W/qm 0,0 nein 23:05
23:108,7 °C 8,3 °C 7,8 °C 77 % 1006,1 hPa 0,0 mm 2,2 mm 0,0 km/h 0,0 km/h WSW 0,0 W/qm 0,0 nein 23:10
23:158,6 °C 8,3 °C 7,8 °C 77 % 1006,0 hPa 0,0 mm - 0,0 km/h 0,0 km/h WSW 0,0 W/qm 0,0 nein 23:15
23:208,5 °C 8,3 °C 7,8 °C 77 % 1006,1 hPa 0,0 mm - 0,0 km/h 0,0 km/h WSW 0,0 W/qm 0,0 nein 23:20
23:258,5 °C 8,3 °C 7,8 °C 77 % 1006,1 hPa 0,0 mm - 0,0 km/h 0,0 km/h WSW 0,0 W/qm 0,0 nein 23:25
23:308,6 °C 8,3 °C 7,8 °C 79 % 1006,0 hPa 0,0 mm - 0,0 km/h 0,0 km/h WSW 0,0 W/qm 0,0 nein 23:30
23:358,4 °C 8,3 °C 7,8 °C 79 % 1006,1 hPa 0,0 mm - 0,0 km/h 0,0 km/h WSW 0,0 W/qm 0,0 nein 23:35
23:408,4 °C 8,3 °C 7,8 °C 79 % 1006,0 hPa 0,0 mm - 0,0 km/h 0,0 km/h WSW 0,0 W/qm 0,0 nein 23:40
23:458,3 °C 7,8 °C 7,8 °C 80 % 1006,0 hPa 0,0 mm - 0,0 km/h 0,0 km/h WSW 0,0 W/qm 0,0 nein 23:45
23:508,3 °C 7,8 °C 7,8 °C 80 % 1005,9 hPa 0,0 mm - 0,0 km/h 0,0 km/h WSW 0,0 W/qm 0,0 nein 23:50
23:558,2 °C 7,8 °C 7,8 °C 81 % 1005,9 hPa 0,0 mm - 0,0 km/h 0,0 km/h WSW 0,0 W/qm 0,0 nein 23:55
Gesamt: 8,7 °C 7,2 °C 7,1 °C 69 % 1010,1 hPa 0,0 mm 44,9 mm 1,1 km/h 4,3 km/h 0 166,4 W/qm 0,5 ja

Insgesamt 288 Zeilen mal 13 Spalten = 3744 Werte werden angezeigt.

www.wetter-rosstal.de   •   www.wetter-franken.de   •   www.lightningmaps.org   •   Start   •   Kontakt / Datenschutz   •   PC-Kümmerer